Temp
-3 -3 -3 -3 -3 -3 -3 -4 -4 -4 -4 -4 -4 -5 -5 -5 -5 -5 -5 -5 -5 -5 -5 -5 -5 -5 -5 -5 -5 -5 -5 -5 -5 -5 -5 -5 -5 -5 -5 -5 -5 -5 -5 -5 -5 -6 -6 -6 -6 -6 -6 -6 -7 -7 -7 -7 -7 -7 -7 -7 -7 -7 -7 -7 -7 -7 -7 -7 -7
-3 -3 -3 -3 -3 -4 -4 -4 -4 -4 -5 -5 -5 -5 -5 -5 -5 -5 -5 -5 -5 -5 -5 -5 -5 -5 -5 -5 -5 -5 -5 -5 -5 -5 -5 -5 -5 -5 -5 -5 -5 -5 -5 -5 -6 -6 -6 -6 -6 -6 -6 -6 -7 -7 -7 -7 -7 -7 -7 -7 -7 -7 -7 -7 -7 -7 -7 -7 -7
-3 -3 -3 -3 -3 -4 -4 -4 -4 -4 -4 -5 -5 -5 -5 -5 -5 -5 -5 -5 -5 -5 -5 -5 -5 -5 -5 -5 -5 -5 -5 -5 -5 -5 -5 -5 -5 -5 -5 -5 -5 -5 -5 -6 -6 -6 -6 -6 -6 -6 -6 -7 -7 -7 -7 -7 -7 -7 -7 -7 -7 -7 -7 -8 -7 -7 -7 -7 -7
-3 -3 -3 -3 -3 -4 -4 -4 -4 -4 -4 -5 -5 -5 -5 -5 -5 -5 -5 -5 -5 -5 -5 -5 -5 -5 -5 -5 -5 -5 -5 -5 -5 -5 -5 -5 -5 -5 -5 -5 -5 -6 -6 -6 -6 -6 -6 -6 -6 -6 -6 -7 -7 -7 -7 -7 -7 -7 -7 -7 -8 -8 -8 -8 -8 -8 -8 -8 -7
-3 -3 -3 -3 -3 -4 -4 -4 -4 -4 -5 -5 -5 -5 -5 -5 -5 -5 -5 -5 -5 -5 -5 -5 -5 -5 -5 -5 -5 -5 -5 -5 -5 -5 -5 -5 -5 -5 -5 -5 -6 -6 -6 -6 -6 -6 -6 -6 -6 -6 -6 -7 -7 -7 -7 -7 -7 -7 -7 -8 -8 -8 -8 -8 -8 -8 -8 -8 -8
-3 -3 -3 -3 -4 -4 -4 -5 -5 -5 -5 -5 -5 -5 -5 -5 -5 -5 -5 -5 -5 -5 -5 -5 -6 -5 -5 -5 -5 -5 -5 -5 -5 -5 -5 -5 -5 -6 -6 -6 -6 -6 -6 -6 -6 -6 -6 -6 -6 -6 -6 -7 -7 -7 -7 -7 -7 -7 -7 -8 -8 -8 -8 -8 -8 -8 -8 -8 -8
-3 -3 -3 -4 -4 -4 -4 -5 -5 -5 -5 -5 -5 -5 -5 -5 -5 -5 -5 -5 -5 -6 -6 -6 -6 -6 -5 -5 -5 -5 -5 -5 -5 -5 -6 -6 -6 -6 -6 -6 -6 -6 -6 -6 -6 -6 -6 -6 -6 -6 -7 -7 -7 -7 -7 -7 -7 -7 -7 -8 -8 -8 -8 -8 -8 -8 -8 -8 -8
-3 -3 -3 -4 -4 -4 -4 -4 -4 -4 -5 -5 -5 -5 -5 -5 -5 -5 -5 -5 -6 -6 -6 -6 -6 -6 -5 -5 -5 -5 -6 -6 -6 -6 -6 -6 -6 -6 -6 -6 -6 -6 -6 -6 -6 -6 -6 -6 -6 -6 -7 -7 -7 -7 -7 -7 -7 -7 -7 -7 -8 -8 -8 -8 -8 -8 -8 -8 -8
-3 -3 -3 -4 -4 -4 -4 -4 -4 -4 -5 -5 -5 -5 -5 -5 -5 -5 -5 -5 -5 -5 -6 -6 -6 -6 -6 -6 -6 -6 -6 -6 -6 -6 -6 -6 -6 -6 -6 -6 -6 -6 -6 -6 -6 -6 -6 -6 -6 -7 -7 -7 -7 -7 -7 -7 -7 -7 -7 -7 -8 -8 -8 -8 -8 -8 -8 -8 -8
-3 -3 -3 -3 -4 -4 -4 -4 -4 -4 -5 -5 -5 -5 -5 -5 -5 -5 -5 -5 -5 -6 -6 -6 -6 -6 -6 -6 -6 -6 -6 -6 -6 -6 -6 -6 -6 -6 -6 -6 -6 -6 -6 -6 -6 -6 -6 -6 -7 -7 -7 -7 -7 -7 -7 -7 -7 -7 -7 -7 -8 -8 -7 -7 -7 -7 -8 -8 -7
-3 -3 -3 -3 -3 -4 -4 -4 -4 -5 -5 -5 -5 -5 -5 -5 -5 -5 -5 -5 -6 -6 -6 -6 -6 -6 -6 -6 -6 -6 -6 -6 -6 -6 -6 -6 -6 -7 -7 -7 -7 -7 -6 -6 -6 -6 -6 -7 -7 -7 -7 -7 -7 -7 -7 -7 -7 -7 -7 -7 -7 -7 -7 -7 -7 -7 -7 -7 -7
-3 -3 -3 -3 -4 -4 -4 -4 -4 -4 -5 -5 -5 -5 -5 -5 -5 -5 -5 -6 -6 -6 -6 -6 -6 -6 -6 -6 -6 -6 -6 -6 -6 -6 -6 -7 -7 -7 -7 -7 -7 -7 -7 -7 -7 -7 -7 -7 -7 -7 -7 -7 -7 -7 -7 -7 -7 -7 -7 -7 -7 -7 -7 -7 -7 -7 -7 -7 -7
-3 -3 -3 -3 -4 -4 -4 -4 -4 -4 -5 -5 -5 -5 -5 -5 -5 -5 -5 -6 -6 -6 -6 -6 -6 -6 -6 -6 -6 -6 -6 -6 -6 -6 -7 -7 -7 -7 -7 -7 -7 -7 -7 -7 -7 -7 -7 -7 -7 -7 -7 -7 -7 -7 -7 -7 -7 -7 -7 -7 -7 -7 -7 -7 -7 -7 -7 -7 -7
-3 -3 -3 -3 -4 -4 -4 -4 -4 -4 -4 -5 -5 -5 -5 -5 -5 -5 -5 -6 -6 -6 -6 -6 -6 -6 -6 -6 -6 -6 -6 -6 -6 -6 -7 -7 -7 -7 -7 -7 -7 -7 -7 -7 -7 -7 -7 -7 -7 -7 -7 -7 -7 -6 -6 -7 -7 -7 -7 -7 -7 -7 -7 -7 -7 -7 -7 -7 -7
-3 -3 -3 -3 -4 -4 -4 -4 -4 -4 -4 -5 -5 -5 -5 -5 -5 -5 -5 -5 -6 -6 -6 -6 -6 -6 -6 -6 -6 -6 -6 -6 -6 -6 -7 -7 -7 -7 -7 -7 -7 -7 -7 -7 -7 -7 -7 -7 -7 -7 -7 -7 -6 -6 -6 -6 -6 -6 -6 -6 -7 -7 -7 -7 -8 -7 -7 -7 -7
-3 -3 -3 -3 -4 -4 -4 -4 -4 -4 -5 -5 -5 -5 -5 -5 -5 -5 -5 -5 -5 -5 -5 -6 -6 -6 -6 -6 -6 -6 -6 -6 -6 -6 -7 -7 -7 -7 -7 -7 -7 -7 -7 -7 -7 -7 -6 -6 -6 -6 -6 -6 -6 -6 -6 -6 -6 -6 -6 -6 -6 -7 -7 -7 -7 -7 -7 -6 -7
-3 -3 -3 -3 -4 -4 -4 -4 -4 -4 -4 -5 -5 -5 -5 -5 -5 -5 -5 -5 -5 -5 -5 -5 -6 -6 -6 -6 -6 -6 -6 -6 -6 -6 -6 -6 -7 -7 -7 -7 -7 -7 -6 -6 -6 -6 -6 -6 -6 -6 -6 -6 -6 -6 -6 -6 -6 -6 -5 -5 -6 -6 -7 -7 -7 -7 -6 -6 -6
-3 -3 -3 -3 -3 -4 -4 -4 -4 -4 -4 -4 -5 -5 -5 -5 -5 -5 -5 -5 -5 -5 -5 -5 -5 -6 -6 -6 -6 -6 -6 -6 -6 -6 -6 -6 -6 -6 -6 -6 -6 -6 -6 -6 -6 -6 -6 -6 -6 -6 -6 -6 -6 -6 -6 -6 -5 -5 -5 -5 -5 -6 -7 -7 -7 -6 -6 -6 -6
-3 -3 -3 -3 -3 -3 -4 -4 -4 -4 -4 -4 -5 -5 -5 -5 -5 -5 -5 -5 -5 -5 -5 -5 -5 -5 -5 -5 -5 -6 -6 -6 -6 -6 -6 -6 -6 -6 -6 -6 -6 -6 -6 -6 -6 -6 -6 -6 -6 -6 -6 -6 -6 -6 -5 -5 -5 -5 -5 -5 -5 -6 -7 -7 -6 -6 -6 -6 -6
-3 -3 -3 -3 -3 -3 -4 -4 -4 -4 -4 -4 -5 -5 -5 -5 -5 -5 -5 -5 -5 -5 -5 -5 -5 -5 -5 -5 -5 -5 -6 -6 -6 -6 -6 -6 -6 -6 -6 -6 -6 -6 -6 -6 -6 -6 -6 -6 -6 -6 -6 -6 -6 -5 -5 -5 -5 -5 -4 -5 -5 -6 -6 -6 -6 -5 -5 -6 -6
-3 -2 -2 -3 -3 -3 -4 -4 -4 -4 -4 -4 -4 -4 -4 -5 -5 -5 -5 -5 -5 -5 -5 -5 -5 -5 -5 -5 -5 -5 -5 -5 -6 -6 -6 -6 -6 -6 -6 -6 -6 -6 -6 -6 -6 -6 -6 -6 -6 -6 -6 -5 -5 -5 -5 -5 -4 -4 -4 -5 -5 -6 -6 -5 -5 -5 -5 -5 -6
-2 -2 -2 -3 -3 -3 -4 -4 -4 -4 -4 -4 -4 -4 -4 -4 -5 -5 -5 -5 -5 -5 -5 -5 -5 -5 -5 -5 -5 -5 -5 -5 -5 -5 -5 -5 -5 -5 -5 -5 -5 -5 -6 -6 -6 -6 -6 -6 -6 -5 -5 -5 -5 -5 -4 -4 -4 -4 -4 -5 -5 -5 -5 -5 -5 -5 -5 -5 -6
-2 -2 -2 -3 -3 -3 -4 -4 -4 -4 -4 -4 -4 -4 -4 -4 -5 -5 -5 -5 -5 -5 -5 -5 -5 -5 -5 -5 -5 -5 -5 -5 -5 -5 -5 -5 -5 -5 -5 -5 -5 -5 -5 -5 -6 -6 -6 -6 -5 -5 -5 -5 -4 -4 -4 -4 -4 -4 -4 -5 -4 -4 -4 -5 -5 -5 -5 -5 -6
-2 -2 -3 -3 -3 -3 -4 -4 -4 -4 -4 -4 -4 -4 -4 -4 -5 -5 -5 -5 -5 -5 -5 -5 -5 -5 -5 -5 -5 -5 -5 -5 -5 -5 -5 -5 -5 -5 -5 -5 -5 -5 -5 -5 -6 -6 -6 -5 -5 -4 -4 -4 -4 -4 -4 -4 -4 -4 -4 -4 -4 -4 -4 -4 -5 -5 -5 -5 -6
-2 -3 -3 -3 -3 -3 -3 -4 -4 -4 -4 -4 -4 -4 -4 -4 -5 -5 -5 -5 -5 -5 -5 -5 -5 -5 -5 -5 -5 -5 -5 -5 -5 -5 -5 -5 -5 -5 -5 -5 -5 -5 -5 -5 -6 -6 -5 -4 -4 -4 -3 -3 -3 -3 -3 -3 -3 -3 -3 -4 -4 -4 -4 -4 -5 -5 -5 -5 -6
-3 -3 -3 -3 -3 -3 -3 -4 -4 -4 -4 -4 -4 -4 -4 -4 -5 -5 -5 -5 -5 -5 -5 -5 -5 -5 -5 -5 -5 -5 -5 -5 -5 -5 -5 -5 -5 -5 -5 -5 -5 -5 -5 -5 -6 -5 -4 -4 -3 -3 -3 -3 -3 -3 -3 -3 -3 -3 -3 -4 -4 -4 -5 -5 -5 -5 -5 -5 -6
-3 -3 -3 -3 -3 -3 -3 -3 -3 -4 -4 -4 -4 -4 -4 -4 -5 -5 -5 -5 -5 -5 -5 -5 -5 -5 -5 -5 -5 -5 -5 -5 -5 -5 -5 -5 -5 -5 -5 -5 -5 -5 -5 -5 -5 -5 -4 -3 -3 -3 -3 -2 -3 -3 -3 -3 -3 -3 -4 -4 -4 -5 -5 -5 -5 -5 -6 -6 -6
-3 -3 -3 -3 -3 -3 -3 -3 -3 -3 -4 -4 -4 -4 -4 -4 -5 -5 -5 -5 -5 -5 -5 -5 -5 -5 -5 -5 -5 -5 -5 -5 -5 -5 -5 -5 -5 -5 -5 -5 -5 -5 -5 -5 -5 -4 -4 -3 -3 -3 -2 -2 -2 -3 -3 -3 -3 -4 -4 -4 -4 -5 -5 -5 -5 -5 -5 -6 -6
-3 -3 -3 -3 -3 -3 -3 -3 -3 -3 -3 -4 -4 -4 -4 -5 -5 -5 -5 -5 -5 -5 -5 -5 -5 -5 -5 -5 -5 -5 -5 -5 -5 -5 -5 -5 -5 -5 -5 -5 -5 -5 -5 -5 -5 -4 -4 -3 -3 -2 -2 -2 -2 -2 -3 -3 -3 -4 -4 -4 -4 -5 -5 -5 -5 -5 -6 -6 -6
-3 -3 -3 -3 -3 -3 -3 -3 -3 -3 -3 -4 -4 -4 -4 -5 -5 -5 -5 -5 -5 -5 -5 -5 -5 -5 -5 -5 -5 -5 -5 -5 -5 -5 -5 -5 -5 -5 -5 -5 -5 -5 -5 -5 -5 -4 -3 -3 -3 -2 -2 -2 -2 -2 -3 -3 -3 -4 -4 -4 -4 -4 -5 -5 -5 -5 -6 -6 -6
-3 -3 -3 -3 -3 -2 -2 -2 -3 -3 -4 -4 -4 -4 -4 -5 -5 -5 -5 -5 -5 -5 -5 -5 -5 -5 -5 -5 -5 -5 -5 -5 -5 -5 -5 -5 -5 -5 -5 -5 -5 -5 -5 -5 -4 -4 -3 -3 -2 -2 -2 -2 -2 -2 -3 -3 -3 -4 -4 -4 -4 -4 -5 -5 -5 -5 -5 -6 -6
-3 -3 -3 -3 -2 -2 -2 -2 -3 -3 -4 -4 -4 -4 -4 -4 -4 -4 -5 -5 -5 -5 -5 -5 -5 -5 -5 -5 -5 -5 -5 -5 -5 -5 -5 -5 -5 -5 -5 -5 -5 -5 -5 -5 -4 -4 -3 -3 -2 -2 -2 -2 -2 -2 -3 -3 -3 -4 -4 -4 -4 -4 -4 -5 -5 -5 -5 -6 -6
-3 -3 -3 -2 -2 -2 -2 -2 -3 -3 -4 -4 -4 -4 -4 -4 -4 -4 -5 -5 -5 -5 -5 -5 -5 -5 -5 -5 -5 -5 -5 -5 -5 -5 -5 -5 -5 -5 -5 -5 -5 -5 -5 -4 -4 -3 -3 -3 -2 -2 -2 -2 -2 -2 -3 -3 -3 -4 -4 -4 -4 -4 -4 -5 -5 -5 -5 -5 -6
-3 -3 -3 -2 -2 -2 -2 -3 -3 -3 -4 -4 -4 -4 -4 -4 -4 -4 -4 -5 -5 -5 -5 -5 -5 -5 -5 -5 -5 -5 -5 -5 -5 -5 -5 -5 -5 -5 -5 -5 -5 -5 -5 -4 -4 -3 -3 -3 -2 -2 -2 -2 -2 -2 -3 -3 -4 -4 -4 -4 -4 -5 -5 -5 -5 -5 -5 -5 -5
-3 -3 -3 -2 -2 -2 -2 -3 -3 -3 -4 -4 -4 -4 -4 -4 -4 -4 -4 -4 -5 -5 -5 -5 -5 -5 -5 -5 -5 -5 -5 -5 -5 -5 -5 -5 -5 -5 -5 -5 -4 -4 -4 -4 -4 -3 -3 -3 -2 -2 -2 -2 -2 -3 -3 -3 -4 -4 -4 -4 -5 -5 -5 -5 -5 -5 -5 -5 -5
-2 -2 -2 -2 -2 -2 -2 -3 -3 -3 -4 -4 -4 -4 -4 -4 -4 -4 -4 -5 -5 -5 -5 -5 -5 -5 -5 -5 -5 -5 -5 -5 -5 -5 -5 -5 -5 -5 -5 -5 -4 -4 -4 -4 -4 -4 -3 -3 -2 -2 -2 -2 -2 -3 -3 -3 -4 -4 -4 -5 -5 -5 -5 -5 -5 -5 -5 -5 -5
-2 -2 -2 -2 -2 -2 -2 -3 -3 -3 -4 -4 -4 -4 -4 -4 -4 -4 -4 -5 -5 -5 -5 -5 -5 -5 -5 -5 -5 -5 -5 -5 -5 -5 -5 -5 -5 -5 -5 -5 -5 -4 -4 -4 -4 -4 -3 -3 -2 -2 -2 -2 -2 -3 -3 -3 -4 -4 -4 -5 -5 -5 -5 -5 -6 -6 -5 -5 -5
-2 -2 -2 -2 -2 -2 -2 -2 -3 -3 -3 -3 -3 -3 -4 -4 -4 -4 -4 -4 -5 -5 -5 -5 -5 -5 -5 -5 -5 -5 -5 -5 -5 -5 -5 -5 -5 -5 -5 -5 -5 -4 -4 -4 -4 -4 -3 -3 -2 -2 -2 -2 -2 -3 -3 -3 -4 -4 -5 -5 -5 -5 -6 -6 -6 -6 -6 -5 -5
-1 -2 -2 -2 -2 -2 -2 -2 -3 -3 -3 -3 -3 -3 -4 -4 -4 -4 -4 -4 -5 -5 -5 -5 -5 -5 -5 -5 -5 -5 -5 -5 -5 -5 -5 -5 -5 -5 -5 -5 -5 -4 -4 -4 -4 -4 -3 -3 -3 -2 -2 -2 -2 -3 -3 -3 -4 -4 -5 -5 -5 -5 -6 -6 -6 -6 -6 -6 -6
-1 -1 -2 -2 -2 -2 -2 -2 -2 -2 -3 -3 -3 -3 -4 -4 -4 -4 -4 -5 -5 -5 -5 -5 -5 -5 -5 -5 -5 -5 -5 -5 -5 -5 -5 -5 -5 -5 -5 -5 -5 -4 -4 -4 -4 -4 -3 -3 -3 -2 -2 -2 -2 -2 -3 -3 -4 -4 -5 -5 -5 -5 -6 -6 -6 -6 -6 -6 -6
-1 -1 -2 -2 -2 -2 -2 -2 -2 -2 -2 -3 -3 -3 -3 -4 -4 -4 -5 -5 -5 -5 -5 -5 -5 -5 -5 -5 -5 -5 -5 -5 -5 -5 -5 -5 -5 -5 -5 -5 -5 -4 -4 -4 -4 -4 -3 -3 -3 -2 -2 -2 -2 -2 -3 -3 -3 -4 -5 -5 -5 -5 -5 -6 -6 -6 -6 -6 -6
Height
860 860 860 859 859 859 859 858 858 858 858 857 857 857 857 856 856 856 856 855 855 854 854 853 853 852 852 851 851 851 850 849 848 848 847 846 845 845 844 843 842 841 840 839 838 837 836 835 834 833 831 830 829 827 826 825 824 823 821 821 819 817 816 814 813 811 810 809 807
858 858 858 858 858 858 857 857 857 856 856 856 856 856 856 855 855 855 854 854 853 853 852 852 851 851 851 850 850 849 848 848 847 846 846 845 844 843 842 841 840 839 838 837 836 836 834 833 832 831 830 829 827 826 824 823 822 821 820 819 817 816 814 813 811 809 808 806 805
857 857 857 857 856 856 856 856 855 855 855 855 855 855 854 854 854 853 853 852 852 852 851 851 850 850 849 849 848 848 847 846 846 845 844 843 842 841 841 840 839 838 837 836 835 834 833 832 831 830 828 827 826 824 823 821 821 820 819 817 816 814 813 811 809 807 806 805 803
856 856 856 856 855 855 855 854 854 854 854 854 854 853 853 853 852 852 851 851 851 850 850 849 849 848 848 847 846 846 846 845 844 843 842 841 841 840 839 838 837 836 835 834 834 832 831 831 830 828 827 826 824 823 821 820 819 818 817 816 814 812 811 809 807 806 805 803 801
854 854 854 854 854 854 853 853 853 853 853 852 852 852 851 851 851 851 850 850 849 849 848 848 847 847 846 846 845 845 844 843 843 842 841 840 839 838 837 836 836 835 834 833 832 831 830 829 828 826 825 824 823 821 820 819 818 816 815 814 812 811 809 807 806 805 803 802 801
853 853 853 853 852 852 852 852 852 851 851 851 851 851 850 850 850 849 849 848 848 847 847 847 846 846 845 844 844 843 842 842 841 840 839 838 837 836 836 835 834 833 832 831 831 830 828 827 826 825 824 822 821 820 819 818 816 815 813 811 810 809 807 806 805 803 802 801 799
851 851 851 851 851 851 851 851 851 851 850 850 850 849 849 848 848 848 847 847 846 846 846 845 845 844 843 843 842 841 841 840 839 838 837 836 836 835 834 833 832 831 831 830 829 828 827 826 825 823 822 821 820 818 817 816 815 813 811 810 808 807 806 805 803 802 801 800 798
850 850 850 850 850 850 850 850 850 849 849 848 848 848 847 847 847 846 846 846 845 845 844 844 843 843 842 841 841 840 839 838 837 836 836 835 834 833 832 831 831 830 829 828 827 826 825 824 823 822 821 819 818 817 815 814 813 812 810 808 806 805 804 803 802 801 800 799 797
848 848 849 849 849 849 849 848 848 848 847 847 846 846 846 846 846 845 845 844 844 843 843 842 842 841 841 840 839 839 838 837 836 835 834 833 832 831 830 830 829 828 827 826 826 825 823 822 821 820 819 818 816 815 814 812 811 810 808 806 805 803 802 801 800 799 798 797 796
847 847 847 847 847 847 847 847 847 846 846 846 845 845 845 845 844 844 843 843 842 842 841 841 841 840 839 839 838 837 836 835 834 833 832 831 831 830 829 828 827 826 825 825 824 823 822 821 820 818 817 816 815 814 812 811 809 808 806 805 803 801 800 799 798 797 796 795 794
845 846 846 846 846 846 846 846 845 845 845 844 844 844 843 843 843 842 842 841 841 841 840 840 839 839 838 837 836 836 835 834 833 832 831 830 829 828 827 826 825 824 824 823 822 821 820 819 818 816 815 814 813 812 810 809 807 806 804 802 801 800 798 796 796 795 794 793 792
844 844 844 844 845 845 844 844 844 844 843 843 843 842 842 842 841 841 841 840 840 839 839 838 838 837 836 836 835 834 833 832 831 830 829 828 827 826 826 825 824 823 822 821 821 820 819 817 816 815 813 812 811 810 809 807 806 804 802 800 799 797 796 794 793 793 793 792 791
842 842 843 843 843 843 843 843 842 842 842 841 841 841 841 840 840 840 839 839 838 838 837 837 836 836 835 834 833 832 831 831 830 829 827 826 826 825 824 823 822 821 820 819 819 818 817 816 814 813 812 810 809 808 807 805 804 802 800 798 796 794 793 791 791 791 791 790 789
841 841 841 841 841 841 841 841 841 841 841 840 840 840 839 839 839 838 838 837 837 836 836 835 835 834 833 833 832 831 830 829 828 827 826 825 824 823 822 821 820 819 818 817 817 816 815 814 813 811 810 809 807 806 805 803 801 800 798 796 793 791 790 789 789 789 789 788 787
839 839 840 840 840 840 840 840 839 839 839 839 838 838 838 837 837 837 836 836 835 835 834 834 833 832 832 831 831 830 829 828 827 826 824 823 822 821 821 819 818 817 816 816 815 814 813 812 811 810 808 807 805 804 802 801 799 797 795 793 791 789 788 787 788 788 788 787 786
837 837 838 838 838 838 838 838 838 838 838 837 837 837 836 836 836 836 835 834 834 833 833 832 831 831 830 830 829 828 827 826 825 824 823 822 821 820 819 818 817 816 815 814 813 812 811 810 809 808 807 805 803 801 800 798 796 794 792 790 788 786 786 786 786 787 786 785 784
835 836 836 836 836 836 836 836 836 836 836 836 836 836 835 835 834 834 834 833 832 832 831 831 830 830 829 828 827 827 826 825 824 823 822 821 819 818 817 816 815 814 813 812 811 810 809 808 807 806 805 803 801 799 797 795 793 791 789 787 785 784 784 784 785 785 784 783 781
833 834 834 834 835 835 835 835 835 835 835 835 834 834 834 833 833 832 832 831 831 831 830 829 829 828 827 827 826 826 825 824 822 821 820 819 818 817 816 814 813 812 811 810 809 808 807 806 805 804 802 801 799 797 795 793 791 789 786 784 783 782 782 783 783 783 781 780 779
831 832 832 832 833 833 833 833 833 833 833 833 833 833 832 832 831 831 831 830 830 829 829 828 827 827 826 826 825 824 823 822 821 820 819 818 816 816 814 813 812 811 810 808 807 806 805 804 803 801 800 798 796 794 792 791 789 787 784 782 781 781 781 781 781 780 779 778 776
830 830 830 831 831 831 831 832 832 832 832 832 831 831 831 831 830 830 829 828 828 828 827 826 826 825 825 824 823 822 821 821 820 819 817 816 815 814 813 811 810 809 808 807 806 805 803 802 801 799 797 796 794 792 790 788 786 784 782 781 779 779 779 779 778 777 776 775 774
827 828 828 829 829 830 830 830 830 830 830 830 830 830 829 829 829 828 827 827 827 826 826 825 825 824 823 823 822 821 820 819 818 817 816 815 814 813 811 810 809 807 806 805 804 803 802 801 799 797 795 793 791 790 787 786 784 781 780 778 778 777 776 776 776 775 774 773 772
826 826 827 827 828 828 828 829 829 829 829 829 828 828 828 827 827 826 826 826 825 825 824 824 823 823 822 821 821 820 818 817 817 816 815 814 812 811 810 809 807 806 805 803 802 801 800 798 797 795 793 791 789 787 785 783 781 778 776 776 775 774 774 774 774 773 772 772 771
824 825 825 826 826 826 827 827 827 827 827 827 827 827 826 826 826 825 825 824 824 823 823 822 822 821 821 820 819 818 817 816 815 814 813 812 811 810 809 808 806 805 803 802 801 800 798 796 795 793 791 789 787 784 782 779 776 775 773 772 772 771 771 771 771 771 771 770 769
822 823 823 824 825 825 825 826 826 826 826 826 825 825 825 825 824 824 823 823 822 822 821 821 821 820 820 819 818 817 816 815 814 813 812 811 810 809 807 806 805 803 802 801 800 799 797 796 794 792 790 787 785 782 780 777 775 773 772 771 770 769 768 768 768 768 768 768 767
821 821 822 822 823 823 823 824 824 824 824 824 824 824 823 823 823 822 822 821 821 821 820 820 819 819 818 817 816 816 815 814 812 811 810 809 808 807 806 805 803 802 801 799 798 798 797 796 793 791 789 786 784 781 778 776 775 774 772 771 769 768 768 767 767 766 766 765 766
819 819 820 820 821 821 821 822 822 822 822 822 822 822 822 821 821 821 820 820 819 819 819 818 818 817 817 816 815 814 813 812 811 810 809 808 807 806 804 803 802 800 799 798 797 796 796 794 792 790 787 785 782 779 776 775 774 773 771 770 769 768 767 766 766 765 764 763 764
817 817 818 818 819 819 820 820 820 821 821 821 821 821 821 820 820 819 819 818 818 818 817 817 816 816 816 815 814 813 812 811 810 809 808 807 806 804 803 801 800 799 797 796 796 795 794 792 790 788 786 783 780 778 776 774 773 772 771 769 769 768 767 766 765 763 762 761 762
815 815 816 816 817 817 818 818 819 819 819 819 819 819 819 819 818 818 817 817 817 816 816 816 815 815 814 813 812 811 811 810 809 808 807 806 805 803 802 800 799 797 796 796 795 794 792 791 789 786 784 781 779 777 775 774 773 771 770 769 768 768 767 766 764 762 761 760 761
812 813 814 814 815 815 816 816 817 817 817 818 818 818 817 817 817 816 816 816 815 815 815 814 814 813 812 812 811 810 809 809 808 807 806 805 803 802 801 799 797 796 795 795 794 792 791 789 787 785 783 780 778 776 775 773 772 771 770 768 768 767 766 764 762 760 759 759 759
811 811 812 812 813 813 814 815 815 816 816 816 816 816 816 816 815 815 815 814 814 814 813 813 812 811 811 811 810 809 808 807 806 806 805 803 802 801 799 798 796 795 794 793 792 791 790 788 786 784 781 779 777 775 774 773 772 770 769 768 766 765 764 762 761 759 758 758 758
808 809 810 810 811 811 812 813 813 814 814 815 815 815 814 814 814 813 813 813 812 812 812 811 811 810 810 809 808 808 807 806 805 804 803 802 801 799 798 796 795 793 792 791 791 790 788 786 784 782 780 777 776 775 774 772 771 770 768 767 766 765 763 761 760 758 757 757 757
806 807 807 808 808 809 810 811 812 812 813 813 813 813 812 812 812 812 812 811 811 811 810 810 810 809 808 808 807 806 806 805 804 803 802 801 800 798 797 795 794 792 791 791 790 789 787 785 783 781 778 776 776 774 773 771 770 769 768 767 766 764 762 761 759 758 756 756 756
804 805 805 806 806 807 808 809 810 811 811 811 811 811 811 811 811 810 810 810 810 809 809 809 808 807 807 806 806 805 804 803 803 802 801 800 799 797 796 794 793 791 790 790 789 787 786 784 781 779 777 776 775 774 772 771 770 769 768 766 765 764 762 760 758 757 756 756 756
802 802 803 803 804 805 806 807 808 809 809 809 809 809 809 809 809 809 809 809 808 808 808 807 807 806 806 805 804 804 803 802 801 801 800 799 797 796 795 793 792 791 790 789 788 786 785 782 780 778 776 775 774 772 771 770 769 768 767 766 765 763 761 759 758 756 756 755 755
800 800 801 801 802 803 804 805 806 807 807 807 807 807 807 807 807 807 807 807 807 807 806 806 806 805 804 804 803 803 802 801 800 799 798 797 796 795 794 792 791 790 789 788 787 785 784 781 779 777 776 774 773 772 771 770 769 768 767 766 764 762 761 759 757 756 756 755 755
797 798 798 799 800 801 802 803 804 805 805 805 805 806 806 806 806 806 806 806 806 805 805 804 804 804 803 802 802 801 801 800 799 798 797 796 795 794 793 791 790 789 788 787 786 784 782 780 778 776 775 773 772 771 770 769 768 767 766 765 764 762 760 759 757 756 756 755 755
795 796 796 797 798 799 800 801 802 802 803 803 803 804 804 804 804 804 804 804 804 804 803 803 802 802 801 801 800 800 799 799 798 797 796 795 794 793 792 790 789 788 786 786 785 783 781 779 777 776 774 772 771 770 769 769 768 767 766 765 763 761 760 759 757 756 756 755 755
792 793 794 795 795 796 797 799 799 800 800 801 801 802 802 802 802 802 803 803 802 802 801 801 801 801 800 800 799 798 798 797 797 796 795 794 793 792 791 789 788 787 786 785 784 782 781 779 777 775 773 772 771 770 769 768 767 766 765 764 763 761 760 759 758 757 756 755 755
790 791 792 792 793 794 795 796 797 797 798 799 800 800 801 801 801 801 801 801 801 801 800 800 799 799 799 798 798 797 796 796 796 795 794 793 792 791 790 789 787 786 785 784 783 781 780 778 776 775 773 771 770 769 769 768 767 766 765 764 762 761 759 758 758 757 756 755 755
787 789 790 790 791 792 793 794 794 795 796 797 798 798 799 799 799 799 799 799 799 799 799 798 798 797 797 797 796 796 795 794 794 793 793 792 791 790 789 788 787 786 784 783 782 781 779 778 776 774 773 771 770 769 768 767 767 766 765 763 761 760 759 758 757 757 756 755 754
785 786 787 788 789 789 790 791 792 793 795 796 796 796 797 797 797 797 798 798 798 797 797 797 796 796 796 796 795 794 793 793 792 792 791 791 790 789 788 787 786 785 783 782 781 780 779 777 776 774 772 771 770 769 768 767 766 765 764 762 761 760 759 758 757 756 756 755 754
Wind_Speed
16 16 16 15 15 15 14 14 14 13 13 14 14 14 14 14 15 16 16 17 19 20 21 21 22 22 22 22 22 23 23 24 24 24 24 24 24 24 25 25 25 26 25 25 25 25 25 26 27 27 27 26 26 27 27 28 27 27 26 26 26 26 27 27 27 26 25 24 23
17 16 16 15 15 15 15 14 14 14 14 14 14 14 14 15 16 17 18 19 19 20 21 21 21 22 22 22 23 24 24 24 24 24 24 24 25 25 26 26 26 26 26 25 25 25 26 26 27 27 26 25 26 27 28 28 28 27 26 26 27 27 27 26 26 26 25 24 24
17 17 16 16 15 15 15 15 15 15 15 15 15 15 15 16 17 18 19 19 20 20 21 21 21 22 22 23 24 24 24 25 25 25 25 25 26 26 26 26 26 26 26 25 25 25 25 26 26 26 25 25 26 27 28 29 28 27 26 27 27 27 26 26 26 25 25 24 24
18 17 17 16 16 15 15 15 16 16 15 15 15 15 16 17 18 18 19 20 20 20 21 21 22 22 23 24 25 25 25 25 25 25 26 26 26 26 26 26 26 26 26 25 25 25 26 26 26 26 25 26 27 27 28 28 28 27 27 28 28 27 26 26 26 25 24 24 24
18 17 17 16 15 15 15 15 15 16 15 15 16 16 17 17 18 18 19 20 20 20 21 21 22 23 24 24 25 25 25 25 25 26 26 27 27 27 27 27 26 26 26 25 25 26 26 26 26 26 25 26 26 26 27 27 28 28 29 29 28 27 26 26 26 25 24 25 25
18 17 16 15 15 15 15 15 16 16 16 16 16 17 17 17 17 18 19 19 20 21 21 21 22 23 23 24 24 25 25 26 26 26 27 27 28 28 27 27 26 26 26 26 26 26 26 26 26 25 25 25 25 25 26 27 28 29 30 30 29 28 27 26 26 26 25 26 27
18 17 16 16 15 15 16 16 16 16 16 16 17 17 17 16 17 17 18 19 20 20 21 21 22 22 23 24 24 25 26 26 27 27 28 28 28 28 27 27 26 26 26 26 26 26 26 26 25 25 24 24 24 25 26 28 29 30 31 31 30 29 28 28 27 27 27 28 29
17 17 17 16 16 16 16 16 16 16 16 16 16 16 16 16 17 18 18 19 20 20 20 21 21 22 23 23 24 25 26 27 28 28 28 28 28 28 27 27 27 26 26 26 26 26 26 26 25 25 25 25 25 26 28 29 30 31 32 32 32 31 29 29 28 28 28 29 30
18 18 17 16 16 16 16 16 15 15 15 15 15 15 15 16 17 18 18 19 19 19 19 20 21 22 22 23 25 26 26 27 28 28 28 28 28 28 28 27 27 27 27 26 26 26 26 26 26 26 26 26 27 28 30 31 32 32 32 32 31 31 31 30 30 30 29 29 29
19 18 17 17 16 16 15 15 15 14 14 15 15 15 15 16 17 17 17 17 17 18 19 20 21 22 23 24 25 26 27 27 28 28 28 28 28 28 28 28 28 28 27 26 26 26 26 26 26 27 28 28 29 30 31 32 32 32 32 32 31 32 33 33 32 31 29 28 28
19 18 17 17 16 15 15 15 14 14 14 15 15 15 15 15 16 16 16 16 17 18 19 20 21 22 23 24 25 26 26 27 28 28 28 28 28 28 28 28 28 28 27 27 26 26 27 27 27 29 29 30 30 30 31 32 32 33 33 33 33 33 34 34 32 30 28 27 27
19 18 17 16 16 15 15 15 15 15 15 15 15 15 15 15 15 15 15 16 17 18 19 20 21 22 23 24 25 25 26 27 27 28 28 28 29 29 28 28 27 27 27 27 27 27 27 28 29 30 30 31 31 31 31 32 33 33 34 35 35 34 34 34 32 30 28 26 27
19 18 17 17 16 15 15 15 15 15 15 15 15 15 14 14 14 14 15 16 17 18 19 20 20 21 22 23 24 25 26 27 27 28 28 28 29 28 28 28 27 26 26 27 27 27 28 28 29 30 30 31 31 32 32 33 33 33 34 35 35 35 35 34 32 29 27 25 26
19 18 18 17 16 16 16 16 16 16 16 15 15 15 14 14 14 15 16 17 18 18 19 19 20 21 22 23 24 25 26 27 27 28 28 28 28 28 27 27 27 27 27 27 27 27 28 28 29 29 30 31 32 33 33 33 33 34 34 35 36 36 35 33 31 28 26 25 25
20 19 18 17 17 16 16 16 16 16 16 16 15 15 15 15 15 15 16 16 17 17 18 19 20 20 21 23 24 25 26 26 27 27 27 28 27 27 27 27 27 27 27 27 27 27 27 28 28 29 30 31 32 33 34 34 34 34 35 35 36 36 34 32 28 26 24 24 25
20 19 18 18 17 17 17 16 16 16 16 16 15 15 15 15 15 15 15 16 16 16 17 18 19 20 21 22 23 24 25 26 26 27 27 27 27 27 27 27 27 27 27 27 27 27 27 27 28 29 30 31 32 33 34 34 34 35 35 36 37 36 33 29 26 24 23 23 25
21 20 19 18 18 17 17 17 16 16 16 16 15 15 15 15 14 14 14 14 15 16 17 18 19 20 22 22 23 24 25 26 26 26 26 26 27 27 27 27 26 26 26 26 27 27 28 28 28 29 30 31 32 33 34 34 34 35 36 37 38 36 32 27 23 21 21 22 23
21 20 19 19 18 18 17 16 16 16 16 16 15 15 15 14 14 14 13 13 14 15 17 18 19 20 21 23 23 24 25 25 26 26 26 26 26 26 26 26 26 26 26 27 27 28 29 29 29 30 31 31 32 33 33 34 34 35 36 38 38 35 30 25 21 19 19 20 22
22 21 20 19 18 18 17 16 16 16 16 16 15 15 14 14 13 13 13 12 13 14 16 18 19 20 21 22 23 24 24 25 26 26 26 26 26 26 26 26 26 27 27 27 28 29 29 30 30 31 31 32 32 32 33 33 34 35 37 38 38 33 27 22 18 16 16 18 20
22 21 20 19 18 17 17 16 16 16 16 15 15 15 14 13 12 12 12 12 13 14 15 17 19 20 21 22 23 24 25 25 25 26 26 26 26 26 26 26 27 27 28 28 29 29 30 30 30 31 31 31 32 32 33 34 35 36 37 38 36 31 25 20 16 14 14 16 18
22 21 20 19 18 17 17 16 16 16 16 16 15 15 14 13 12 12 12 12 13 14 15 17 19 21 22 23 24 24 25 25 25 26 26 26 26 26 26 27 27 28 29 29 29 29 30 30 30 30 30 31 32 33 34 35 36 37 37 36 33 29 24 19 15 14 13 15 16
22 21 19 18 18 17 17 16 16 16 16 16 15 14 13 13 12 11 11 12 13 14 16 17 19 21 22 23 24 24 25 25 25 25 26 26 26 26 27 27 28 29 29 29 29 29 29 29 29 30 30 32 33 34 36 37 37 37 36 33 30 26 23 19 17 15 14 15 16
22 20 19 19 18 17 17 17 17 17 16 16 15 14 13 12 12 11 11 12 13 15 16 18 19 20 22 22 23 24 24 25 25 25 26 26 26 27 27 28 28 29 29 29 29 29 28 28 28 29 31 32 34 35 36 36 36 35 33 30 27 24 22 20 18 17 16 16 16
21 20 19 19 18 18 18 17 17 17 16 16 14 14 13 12 11 11 12 12 14 15 16 18 19 20 21 22 23 23 24 25 25 26 26 27 27 27 28 28 28 29 29 29 28 27 26 26 27 29 30 32 33 33 34 34 32 31 29 27 25 23 21 19 18 18 18 17 16
21 20 20 19 19 18 18 18 18 17 16 15 14 13 13 12 11 11 12 13 14 15 17 18 19 20 21 22 22 23 24 24 25 26 27 27 28 28 28 28 28 29 29 29 27 25 23 24 26 28 30 31 32 33 34 33 30 29 28 26 24 22 20 19 19 20 20 19 17
22 21 20 20 19 19 19 18 18 17 16 15 14 14 13 12 11 12 13 14 15 16 17 18 19 20 21 21 22 23 24 24 25 26 27 28 28 29 29 29 29 30 30 29 26 24 24 25 26 28 30 32 34 35 34 31 30 29 28 25 22 20 19 19 21 22 23 22 19
22 22 21 20 20 19 19 19 18 17 16 15 15 14 13 12 12 12 13 14 15 17 17 18 19 20 20 21 22 23 24 24 25 26 26 27 28 29 29 29 30 30 29 28 26 25 25 26 27 28 30 32 34 34 32 29 28 27 25 22 20 19 19 20 23 25 25 24 21
23 22 21 20 20 20 19 19 18 17 16 15 14 14 13 12 12 13 14 15 16 17 17 18 18 19 20 21 22 23 24 24 25 26 26 27 28 28 29 29 30 30 29 27 26 25 26 26 27 29 30 32 33 32 30 27 25 24 22 20 18 18 19 22 24 25 25 24 21
24 23 22 21 21 21 20 19 18 17 16 15 14 14 13 13 13 13 14 15 16 17 17 18 18 19 20 21 22 23 24 24 25 25 26 27 28 28 29 29 30 30 29 27 26 26 26 27 28 30 31 32 34 32 28 24 22 21 20 19 19 19 21 24 26 26 24 22 19
24 23 23 22 22 21 20 19 18 16 15 15 15 14 14 13 13 13 14 15 16 16 17 17 18 19 20 21 22 23 23 24 25 25 26 27 27 28 28 29 30 30 30 28 26 26 26 27 29 30 32 33 34 31 26 22 20 19 19 19 20 21 23 24 25 24 23 21 18
25 24 23 23 22 21 20 19 17 16 15 15 15 15 14 14 14 13 14 14 15 16 16 17 18 19 20 21 22 23 23 24 24 25 26 26 27 27 28 29 30 30 29 27 26 26 27 28 29 30 32 34 32 27 22 19 17 18 19 19 21 22 23 24 24 23 21 19 17
25 24 24 23 22 21 20 18 17 16 16 16 16 15 15 14 14 13 14 14 15 16 17 17 18 19 20 21 22 22 23 24 24 25 25 26 26 27 28 29 30 30 28 26 26 26 27 28 29 31 32 32 27 22 18 17 17 18 19 20 21 22 23 23 23 21 20 18 15
26 25 24 23 22 21 19 18 17 17 17 16 16 16 15 15 14 14 14 14 15 16 17 18 18 19 20 21 22 23 23 24 24 24 25 25 26 27 28 28 29 29 27 26 26 26 27 28 29 31 31 27 21 18 17 17 17 17 18 19 21 22 23 23 22 21 19 16 13
27 26 25 23 22 21 19 18 18 18 17 17 17 17 16 15 14 14 14 14 15 16 17 17 18 19 20 21 21 22 23 23 24 24 24 25 25 26 27 28 28 28 27 26 26 26 27 28 30 31 28 22 18 18 18 17 17 17 18 19 21 22 23 22 21 20 18 14 11
28 27 25 24 22 21 20 19 19 18 18 18 18 17 16 15 14 14 14 14 15 16 16 17 17 18 19 20 21 21 22 23 24 24 24 24 25 26 26 27 28 27 26 25 25 25 26 27 30 30 25 18 18 19 19 16 16 16 17 18 20 22 22 21 20 19 17 13 11
28 27 26 25 23 22 21 20 19 19 19 19 19 18 17 15 15 14 14 14 15 16 16 17 17 18 19 20 20 21 22 22 23 24 24 24 24 25 25 26 26 26 25 25 25 25 26 27 29 28 22 17 19 21 20 16 14 14 16 17 19 21 21 20 19 19 17 14 11
29 27 26 25 24 23 22 21 21 20 21 20 19 18 17 15 15 14 14 14 15 16 16 17 17 18 19 20 20 21 21 22 23 23 23 23 23 24 24 25 25 25 25 24 24 24 25 26 29 26 20 16 20 23 21 16 13 13 14 16 18 20 21 20 18 18 17 15 13
29 28 26 26 25 24 22 22 22 22 21 21 20 18 16 15 15 14 13 13 14 16 17 17 18 18 19 19 20 21 22 22 22 22 23 23 22 22 22 23 23 24 24 24 23 23 24 26 28 25 19 16 21 23 22 17 13 12 13 15 18 20 20 19 17 16 15 15 14
29 28 27 26 25 24 23 23 22 22 22 21 19 18 16 15 15 14 13 13 14 15 17 17 18 18 18 19 20 21 22 22 22 22 22 22 21 21 21 21 22 23 23 23 23 23 24 25 27 24 20 17 20 23 22 18 13 11 13 15 18 20 20 19 17 16 14 13 13
29 28 27 26 25 24 24 23 23 22 21 20 19 17 16 15 14 14 13 13 14 15 16 17 18 18 18 19 20 21 22 22 21 21 21 20 20 20 19 20 20 21 22 22 22 22 23 24 26 24 20 18 20 22 22 19 12 10 12 15 17 20 20 19 17 16 15 14 14
29 28 27 26 26 25 24 24 23 22 21 20 19 17 16 14 14 14 14 14 15 15 15 16 17 18 18 19 20 21 22 22 21 21 20 20 19 18 18 18 19 20 21 22 21 21 22 23 25 24 21 19 19 20 21 20 12 9 12 14 17 19 19 18 17 16 16 16 16
Wind_Direction
247 250 254 258 262 264 266 267 268 269 271 273 275 277 280 282 284 285 287 288 289 291 293 295 297 300 302 303 304 304 305 305 305 306 305 305 305 306 307 308 309 310 310 311 311 311 311 312 312 312 311 311 311 311 311 312 314 314 313 311 310 311 312 312 312 312 311 310 308
246 249 254 257 260 262 264 265 266 267 269 271 274 277 279 280 282 283 284 286 287 289 292 295 297 299 301 302 303 303 304 304 304 304 304 304 304 305 306 307 309 309 310 310 311 311 312 313 312 311 310 309 309 309 310 312 314 314 312 310 310 310 310 310 309 309 309 309 308
245 248 251 254 256 258 259 261 262 264 266 269 272 274 275 276 278 280 282 284 287 290 292 295 297 299 300 301 302 302 303 303 303 303 303 303 304 305 306 307 308 309 309 310 311 311 312 313 313 311 309 308 309 309 310 311 313 312 310 309 309 309 309 307 306 306 306 306 306
244 247 249 252 253 255 258 260 262 265 267 269 271 272 273 273 276 278 282 285 288 291 293 296 298 299 300 301 301 302 302 302 302 302 302 303 303 304 305 306 307 308 309 309 310 311 312 313 312 310 309 308 308 309 310 311 312 311 309 308 308 308 307 305 304 303 303 303 304
243 246 249 251 254 257 260 262 264 266 268 270 271 271 272 274 277 280 284 287 290 293 295 297 298 299 300 301 302 302 302 302 301 301 302 302 303 304 305 306 306 307 308 309 310 311 312 312 311 309 308 308 308 308 309 310 310 309 309 309 308 307 305 303 303 302 302 302 304
243 246 248 251 254 257 259 261 263 265 267 269 269 270 273 276 280 283 287 290 293 295 297 298 298 299 300 301 302 302 301 301 301 301 302 302 303 304 304 305 305 306 307 309 310 310 311 310 309 308 308 308 307 307 308 310 309 309 308 308 307 306 305 303 303 302 302 302 304
244 245 247 249 251 254 256 258 261 263 265 266 268 270 274 279 283 286 289 292 294 296 297 298 299 300 301 302 302 302 301 301 301 301 302 302 303 303 304 304 305 305 306 308 309 310 310 309 308 307 306 306 305 306 308 310 309 309 308 307 306 306 305 304 304 304 303 304 306
243 244 245 247 249 251 254 257 259 261 263 265 268 272 277 282 285 288 290 292 294 296 298 299 300 301 302 302 302 301 301 301 302 302 302 302 303 303 303 304 304 305 306 307 308 308 308 308 306 305 305 305 304 305 308 310 310 308 307 306 306 306 305 305 306 306 305 306 307
241 241 243 245 248 251 254 256 258 260 262 265 269 274 278 282 285 287 290 292 295 297 299 300 301 301 301 301 301 301 301 301 302 302 303 303 303 303 303 303 304 304 305 306 307 307 307 306 305 304 304 304 304 305 307 309 309 308 307 305 305 305 306 306 307 307 307 307 307
239 239 241 244 247 251 254 256 258 260 263 267 270 273 277 280 283 287 290 294 297 298 299 299 300 300 300 300 300 301 301 302 303 304 304 304 304 304 304 304 304 304 305 305 306 306 306 305 304 304 304 304 304 305 307 308 308 307 306 304 303 304 305 306 307 308 308 308 307
238 239 242 245 248 251 254 256 258 260 263 266 269 273 277 280 284 288 293 296 297 297 297 298 299 299 300 300 301 302 303 304 305 306 306 306 305 305 304 304 304 304 305 305 305 305 305 304 304 304 304 305 305 305 306 307 307 306 305 304 303 302 302 304 306 306 307 307 305
238 240 243 246 249 251 252 254 257 260 263 266 269 274 278 282 287 291 294 295 295 295 296 298 299 300 301 302 304 305 306 307 307 307 307 306 306 306 305 305 305 304 304 304 304 304 304 303 303 304 304 305 305 305 306 306 306 305 303 303 302 300 299 299 301 303 305 305 302
238 241 243 246 247 248 250 252 256 259 262 266 270 275 280 285 289 292 293 293 293 295 297 299 301 302 304 305 307 308 309 309 309 308 307 307 307 307 306 305 305 304 304 303 303 303 303 303 303 304 304 305 306 306 306 306 305 303 301 300 299 297 295 294 296 300 303 302 298
238 241 243 244 245 246 248 251 254 258 262 267 271 276 281 285 288 290 291 292 294 296 299 303 305 307 308 309 310 310 310 310 310 309 309 308 308 308 307 306 305 304 303 302 303 303 303 303 303 304 304 305 306 306 307 306 304 301 299 297 296 294 292 291 292 297 300 299 295
238 240 241 242 242 244 246 250 253 257 262 266 271 276 280 284 287 289 291 292 295 299 303 305 308 310 312 312 312 312 311 311 311 310 310 310 309 309 308 307 306 305 304 304 304 304 304 304 305 305 305 305 305 306 306 305 303 301 298 296 294 292 290 288 290 294 298 296 292
236 238 240 240 241 242 245 248 252 256 261 265 270 275 279 282 286 289 291 293 298 302 305 308 310 312 313 313 313 313 312 312 312 311 311 311 311 311 310 309 308 308 308 308 307 307 307 307 307 306 306 305 305 304 304 303 302 301 299 297 295 293 290 287 289 293 295 292 288
236 237 237 238 239 241 244 247 251 255 259 264 269 274 278 282 286 288 291 295 300 304 307 309 311 312 313 313 314 314 313 312 312 312 312 312 313 313 313 312 312 312 312 311 310 310 310 310 309 308 307 305 304 303 302 302 301 300 300 299 297 295 291 288 290 292 291 287 284
234 235 236 237 238 241 243 247 250 254 259 264 269 273 278 281 284 287 291 296 301 305 307 310 312 312 312 313 314 314 314 313 313 313 314 315 315 315 315 315 315 315 314 313 312 311 311 311 311 309 308 306 304 303 302 301 300 300 300 299 298 295 292 289 291 290 285 281 280
233 234 234 235 237 240 243 247 250 255 259 264 269 273 276 279 283 287 291 296 302 305 307 309 311 312 312 313 314 314 314 314 314 315 316 317 317 317 316 316 316 316 315 314 313 312 312 311 311 309 308 306 304 303 302 301 300 300 300 299 298 295 292 290 289 284 277 275 277
233 233 233 235 237 239 243 246 250 255 259 264 268 271 275 278 281 285 291 297 303 307 308 308 310 311 312 313 314 315 315 315 315 315 316 318 318 317 317 317 316 316 316 315 314 313 312 312 311 309 307 306 304 302 302 301 300 299 299 299 297 295 292 290 284 277 272 273 276
232 233 234 235 237 239 242 246 250 255 259 263 266 269 273 276 279 284 291 298 304 306 307 308 309 310 311 313 314 315 316 317 316 316 316 317 317 317 317 317 317 316 316 315 315 314 313 312 311 309 307 306 304 302 300 299 297 297 296 296 294 293 291 287 279 273 271 274 277
232 232 233 235 236 239 243 246 250 254 258 261 265 268 271 274 279 285 292 299 303 305 306 307 308 309 311 312 313 314 315 317 316 317 316 317 317 317 318 318 317 316 316 315 315 314 314 313 312 310 308 305 303 301 299 296 293 291 290 289 288 289 289 286 277 272 273 276 279
231 232 232 234 236 239 242 245 249 253 256 260 263 266 269 273 279 285 293 298 302 304 305 307 308 308 310 311 313 314 314 315 316 317 317 317 317 318 318 318 317 316 315 315 315 314 314 313 311 309 306 303 300 298 295 292 288 285 283 282 282 285 288 286 278 273 273 276 280
231 231 231 233 235 238 241 244 248 251 255 258 262 265 268 272 278 285 292 297 300 303 304 306 307 308 310 311 312 313 314 314 315 316 317 318 318 318 318 318 317 316 315 315 315 314 312 310 307 305 304 302 299 296 294 291 289 289 288 285 283 285 288 288 282 276 272 274 278
230 230 230 232 234 237 240 243 247 250 254 258 261 264 267 271 278 286 292 296 299 301 303 304 306 308 310 311 312 313 314 314 314 315 316 317 318 319 319 318 317 316 317 317 316 313 310 308 306 305 305 304 302 300 298 298 302 307 307 299 292 289 290 291 287 280 275 272 276
228 229 229 231 233 236 239 243 246 250 253 257 259 262 265 270 278 285 291 294 297 299 301 303 305 307 309 310 311 313 313 314 314 315 315 316 317 319 319 318 317 318 318 318 316 313 311 310 309 309 309 308 306 305 306 309 318 324 323 315 303 295 291 291 289 284 279 274 275
227 227 228 231 233 236 239 242 246 249 252 255 258 260 264 269 277 283 287 291 294 297 299 301 304 307 309 310 311 312 313 313 314 315 315 316 317 318 318 319 318 319 319 318 315 313 313 313 312 312 310 309 309 309 312 319 330 337 337 328 315 303 296 293 291 287 282 277 276
226 226 228 230 232 235 239 242 244 247 250 254 257 260 263 268 274 279 284 288 292 295 298 301 305 308 309 310 311 311 312 313 313 314 315 316 317 317 318 318 319 319 319 317 315 314 314 314 314 313 312 311 312 314 319 328 341 347 345 337 326 316 309 304 301 295 287 279 277
225 226 227 229 232 235 238 240 242 245 249 253 256 258 262 266 271 276 281 286 290 294 298 302 306 308 309 309 310 311 311 312 313 314 315 316 316 317 318 318 319 319 319 318 316 316 316 315 315 314 313 313 315 320 327 337 346 349 347 342 336 330 325 319 311 302 292 283 279
225 226 227 229 232 235 237 239 241 244 248 252 254 257 260 263 268 273 279 284 289 294 299 303 306 306 307 308 309 310 310 311 312 313 314 315 316 317 318 319 320 321 321 319 318 317 317 317 316 315 315 316 320 327 337 344 349 350 349 346 342 339 335 328 321 310 298 287 282
224 225 227 229 231 233 235 237 239 242 247 250 253 255 258 261 265 271 278 284 290 295 299 302 304 305 306 308 309 309 310 311 312 313 314 315 316 317 319 320 321 321 321 320 319 318 318 318 318 317 318 320 326 335 346 351 352 352 351 349 347 345 341 337 330 320 307 294 285
224 225 226 228 230 232 233 235 237 241 245 249 252 254 256 259 264 270 278 284 289 294 297 300 302 304 306 307 308 309 310 311 312 314 315 316 317 318 319 320 321 321 321 320 320 320 320 320 319 319 320 325 335 346 355 356 356 355 353 352 351 350 348 345 341 334 321 305 292
223 224 225 226 228 230 231 233 236 240 244 247 250 252 255 259 264 270 277 283 288 292 295 298 301 303 305 307 307 309 310 311 312 314 315 317 318 318 319 319 320 321 321 320 320 321 321 321 320 321 325 332 346 357 0 0 359 357 355 354 354 355 356 355 352 346 336 320 303
223 223 224 225 227 228 230 232 235 239 243 246 249 250 253 258 264 270 276 281 286 290 293 296 299 302 304 305 306 308 309 311 313 315 316 318 318 319 319 319 320 321 321 320 321 322 322 322 321 324 329 342 357 2 1 1 0 358 356 355 357 359 1 1 360 356 346 331 313
222 222 222 224 225 227 229 231 234 238 241 245 247 249 252 256 261 268 274 280 285 288 292 295 298 300 302 304 306 308 309 311 313 315 317 318 319 319 318 319 321 322 322 321 321 322 323 323 323 326 333 350 2 2 359 359 360 358 357 357 0 3 5 6 5 1 353 338 319
221 221 221 223 224 226 228 230 233 236 240 243 246 248 250 254 260 267 273 279 283 287 290 294 297 299 301 303 306 308 310 312 314 315 317 318 319 319 319 319 321 323 324 323 323 323 324 324 326 329 337 356 4 2 358 357 359 359 358 0 3 6 8 9 9 5 358 346 329
221 221 221 222 223 225 227 229 232 235 238 241 244 247 250 255 260 266 271 277 282 286 290 294 296 299 301 304 306 309 311 312 314 315 316 318 319 319 319 319 321 323 325 325 324 324 324 325 326 330 340 359 5 2 358 356 357 360 1 4 7 9 10 12 12 9 3 354 342
220 220 221 221 222 224 225 228 231 234 237 240 243 246 250 255 260 264 269 275 281 286 290 293 295 298 302 305 307 309 311 313 314 315 316 317 319 319 320 319 320 324 327 327 326 326 325 326 327 331 342 360 6 3 359 355 357 2 5 7 9 10 10 12 13 11 7 0 349
218 219 219 220 221 223 224 227 229 232 236 239 243 246 249 253 258 264 270 275 280 285 288 291 294 298 302 305 307 308 310 312 314 315 316 317 318 319 319 319 320 324 328 330 329 328 327 328 328 332 342 359 6 4 360 355 356 3 9 11 12 11 11 11 11 10 6 0 350
217 217 218 219 220 221 223 226 228 231 235 239 242 245 248 252 258 265 270 275 278 282 286 289 293 297 302 304 306 307 309 311 314 315 316 317 317 318 318 319 322 326 330 332 332 330 329 330 330 334 342 356 4 4 0 355 354 3 12 14 15 13 11 9 8 6 2 357 352
216 216 217 218 219 220 222 225 228 231 234 238 241 244 248 254 260 265 269 273 276 280 284 289 293 297 300 302 304 306 309 311 313 314 315 315 316 316 318 321 325 328 331 333 333 332 331 332 333 338 345 354 1 2 360 354 350 1 14 17 17 15 12 8 5 1 358 354 352